Regional Weather Roundup
Issued by NWS

Home | Current Version | Previous Version | Text Only | Print | Product List | Glossary Off
Versions: 1 2 3 4 5 6 7 8 9 10 11 12 13 14 15 16 17 18 19 20 21 22 23 24 25 26 27 28 29 30 31 32 33 34 35 36 37 38 39 40 41 42 43 44 45 46 47 48 49 50

000
ASUS45 KPSR 021410
RWRAZ

ARIZONA HOURLY REGIONAL WEATHER ROUNDUP
NATIONAL WEATHER SERVICE PHOENIX AZ
700 AM MST MON MAY 02 2016

NOTE: FAIR INDICATES FEW OR NO CLOUDS BELOW 12,000 FEET WITH NO
SIGNIFICANT WEATHER AND/OR OBSTRUCTIONS TO VISIBILITY.

AZZ001>003-036-021500-
NORTHWEST ARIZONA

CITY           SKY/WX    TMP DP  RH WIND       PRES   REMARKS
BULLHEAD CITY  SUNNY     64  46  52 N3        30.04R
KINGMAN        MOSUNNY   55  32  41 CALM      30.10R
$$

AZZ004>008-015-016-018-021500-
NORTH CENTRAL ARIZONA

CITY           SKY/WX    TMP DP  RH WIND       PRES   REMARKS
GRAND CANYON   SUNNY     43  36  76 NE8       30.21R
WILLIAMS       SUNNY     41  34  75 SE8       30.27R
PRESCOTT       MOSUNNY   42  40  92 S5        30.16R
FLAGSTAFF      CLOUDY    31  30  96 CALM      30.22R
PAYSON         SUNNY     50  36  57 NE6       30.17R
PAGE           CLOUDY    51  41  68 CALM      30.20R
$$

AZZ009>014-017-021500-
NORTHEAST ARIZONA

CITY           SKY/WX    TMP DP  RH WIND       PRES   REMARKS
WINSLOW        SUNNY     43  39  86 SE6       30.22R
SAINT JOHNS    SUNNY     40  36  86 CALM      30.19R
WINDOW ROCK    CLOUDY    36  32  85 N3        30.26R
SHOW LOW       FOG       32  32 100 CALM      30.22R VSB<1/4
$$

AZZ023-021500-
GREATER PHOENIX AREA

CITY           SKY/WX    TMP DP  RH WIND       PRES   REMARKS
PHOENIX        MOSUNNY   64  45  49 CALM      29.98R
BUCKEYE        SUNNY     59  41  51 N3        30.01R
GLENDALE       SUNNY     68  43  40 N6        30.01R
LUKE AFB       SUNNY     63  46  53 N5        29.99R
DEER VALLEY    SUNNY     65  40  39 N5        30.00R
SCOTTSDALE     SUNNY     63  42  46 CALM      30.01R
MESA-FALCON    SUNNY    N/A N/A N/A N9        29.98R
MESA-GATEWAY   SUNNY     57  41  54 SE9       30.01R
CHANDLER       SUNNY     61  43  51 N6        30.00R
$$

AZZ027-028-021500-
SOUTHWEST MARICOPA COUNTY AND PINAL COUNTY

CITY           SKY/WX    TMP DP  RH WIND       PRES   REMARKS
CASA GRANDE    SUNNY     63  37  39 E6        30.02R
GILA BEND      SUNNY     62  41  45 CALM      29.97R
$$

AZZ503-504-507>509-021500-
SOUTHEAST ARIZONA

CITY           SKY/WX    TMP DP  RH WIND       PRES   REMARKS
TUCSON         SUNNY     58  34  40 SE7       30.05R
DAVIS-MONTHAN  SUNNY     60  36  40 SE6       30.03R
RYAN FIELD     SUNNY     54  36  50 SE3       30.05R
NOGALES        SUNNY     50  32  50 CALM      30.07R
SIERRA VISTA   SUNNY     50  33  52 VRB1      30.13R
DOUGLAS        SUNNY     55  31  39 NW5       30.13R
SAFFORD        SUNNY     53  33  46 S9        30.17R
$$

AZZ020-021-025-026-031-021500-
SOUTHWEST ARIZONA

CITY           SKY/WX    TMP DP  RH WIND       PRES   REMARKS
YUMA           SUNNY     68  50  52 NE3       29.95R
$$

CAZ031-033-041-043-047-048-061-021500-
SOUTHERN CALIFORNIA

CITY           SKY/WX    TMP DP  RH WIND       PRES   REMARKS
DOWNTOWN L.A.  SUNNY     57  53  86 CALM      30.01R
L.A. AIRPORT   PTSUNNY   58  53  84 NW3       30.02R HAZE
SAN DIEGO      MOSUNNY   59  51  75 N3        30.02R
BURBANK        SUNNY     56  49  77 S3        30.01R
ONTARIO        MOSUNNY   55  51  86 CALM      30.02R
RIVERSIDE      SUNNY     54  50  86 CALM      30.02R
PALM SPRINGS   SUNNY     66  49  54 NW3       29.98R
EL CENTRO NAS  SUNNY     61  42  49 S3        29.96R
IMPERIAL       SUNNY     65  44  46 CALM      29.94R
BLYTHE         SUNNY     64  38  38 N5        29.97R
NEEDLES        SUNNY     67  46  47 CALM      30.01R
$$

NVZ020-UTZ003-021500-
SOUTHERN NEVADA-UTAH

CITY           SKY/WX    TMP DP  RH WIND       PRES   REMARKS
LAS VEGAS      MOSUNNY   62  42  47 CALM      30.05R
SALT LAKE CITY MOSUNNY   48  33  56 N3        30.19R
$$

NMZ009-TXZ055-021500-
NEW MEXICO-WEST TEXAS

CITY           SKY/WX    TMP DP  RH WIND       PRES   REMARKS
ALBUQUERQUE    MOSUNNY   42  33  70 NE7       30.29R
EL PASO        MOSUNNY   47  33  58 CALM      30.25R
$$


........................KEY........................
SKY/WX - SKY CONDITION/WEATHER
TMP    - TEMPERATURE IN FAHRENHEIT
DP     - DEW POINT IN FAHRENHEIT
RH     - RELATIVE HUMIDITY IN PERCENT
WIND   - DIRECTION AND SPEED IN MILES PER HOUR (MPH)
VRB    - VARIABLE WIND DIRECTION
PRES   - MEAN SEA LEVEL PRESSURE IN INCHES OF MERCURY
         F - FALLING PRESSURE   R - RISING PRESSURE
         S - STEADY PRESSURE
VSB    - VISIBILITY IN MILES
HX     - HEAT INDEX IN FAHRENHEIT
WCI    - WIND CHILL INDEX IN FAHRENHEIT
TC     - TEMPERATURE IN CELSIUS WHICH IS ALSO KNOWN AS
         TEMPERATURE IN CENTIGRADE
AFB    - AIR FORCE BASE
         LUKE AFB IS LUKE AIR FORCE BASE
         DAVIS-MONTHAN IS DAVIS-MONTHAN AIR FORCE BASE
NAS    - NAVAL AIR STATION
         EL CENTRO NAS IS EL CENTRO NAVAL AIR STATION
N/A    - NOT AVAILABLE




USA.gov is the U.S. government's official web portal to all federal, state and local government web resources and services.